(242184) = 2003 HY54

Discovered at Campo Imperatore on 2003-04-25 by CINEOS.

Orbit

Orbit type: Main Belt

Note: WebGL enabled browser required.

epoch2024-03-31.0
epoch JD2460400.5
perihelion date2026-03-08.17942
perihelion JD2461107.67942
argument of perihelion (°)92.14256
ascending node (°)165.31033
inclination (°)6.28156
eccentricity0.0959352
perihelion distance (AU)2.4652209
Tisserand w.r.t. Jupiter3.3
ΔV w.r.t. Earth (km/sec)10.0
semimajor axis (AU)2.7268187
mean anomaly (°)205.20780
mean daily motion (°/day)0.21888670
aphelion distance (AU)2.988
period (years)4.5
P-vector [x]-0.21572082
P-vector [y]-0.93373807
P-vector [z]-0.28565319
Q-vector [x]0.97606081
Q-vector [y]-0.19788791
Q-vector [z]-0.09025339
absolute magnitude16.45
phase slope0.15
uncertainty0
referenceMPEC 2024-C163
observations used376
oppositions16
arc length (days)10809
first opposition used1994
last opposition used2024
residual rms (arc-secs)0.69
perturbers coarse indicatorM-v
perturbers precise indicator003Ek
first observation date used1994-06-08.0
last observation date used2024-01-11.0
computer nameMPCLINUX
JD of orbit computation2456581.577000
perihelion JD uncertainty (days)2.1130E-04
argument of perihelion uncertainty (°)7.4445E-05
ascending node uncertainty (°)5.7826E-05
inclination uncertainty (°)7.8481E-06
eccentricity uncertainty 5.5868E-08
perihelion distance uncertainty (AU)1.5181E-07
Minimum Orbit Intersection Distances (in AU)
for orbit epoch: 2460200.5, reference: E2024-CG3
Mercury2.01052
Venus1.74927
Earth1.46363
Mars0.94883
Jupiter2.06267
Saturn6.0845
Uranus15.6833
Neptune26.9174

Observations

385 total observations over interval: 1994 06 08.20457 – 2024 01 11.223485
These data are available for download (format description).

Date (UT) J2000 RA J2000 Dec Magn Location Ref
1994 06 08.20457 15 04 47.12 -07 27 48.7 19.9 V 691 – Steward Observatory, Kitt Peak-Spacewatch MPS 200353
1994 06 08.23122 15 04 46.27 -07 27 47.6   691 – Steward Observatory, Kitt Peak-Spacewatch MPS 200353
1994 06 08.25786 15 04 45.34 -07 27 46.9   691 – Steward Observatory, Kitt Peak-Spacewatch MPS 200353
1995 09 17.28120 23 41 55.96 -03 32 36.3 20.6 V 691 – Steward Observatory, Kitt Peak-Spacewatch MPS 309272
1995 09 17.30222 23 41 54.96 -03 32 46.1 20.6 V 691 – Steward Observatory, Kitt Peak-Spacewatch MPS 309272
1995 09 17.32306 23 41 53.67 -03 32 53.3 18.7 V 691 – Steward Observatory, Kitt Peak-Spacewatch MPS 309272
2003 04 25.02450 15 27 30.36 -09 42 05.4 19.2 R 599 – Campo Imperatore-CINEOS MPS 80272
2003 04 25.05498 15 27 29.06 -09 41 55.2 19.4 R 599 – Campo Imperatore-CINEOS MPS 80272
2003 04 25.07459 15 27 28.20 -09 41 48.0 19.2 R 599 – Campo Imperatore-CINEOS MPS 80272
2003 04 30.36668 15 23 39.33 -09 12 38.8 21.2   608 – Haleakala-AMOS MPS 80272
2003 04 30.37743 15 23 38.77 -09 12 35.5 20.7   608 – Haleakala-AMOS MPS 80272
2003 04 30.38826 15 23 38.27 -09 12 31.9 20.6   608 – Haleakala-AMOS MPS 80272
2003 05 11.31472 15 14 49.44 -08 16 16.7 19.8 V 691 – Steward Observatory, Kitt Peak-Spacewatch MPS 80272
2003 05 11.34080 15 14 48.07 -08 16 08.8 19.8 V 691 – Steward Observatory, Kitt Peak-Spacewatch MPS 80272
2003 05 11.36781 15 14 46.67 -08 16 01.5 20.0 V 691 – Steward Observatory, Kitt Peak-Spacewatch MPS 80272
2003 05 27.26334 15 02 12.62 -07 15 58.1 20.6 V 691 – Steward Observatory, Kitt Peak-Spacewatch MPS 80272
2003 05 27.29164 15 02 11.38 -07 15 53.7 20.2 V 691 – Steward Observatory, Kitt Peak-Spacewatch MPS 80272
2003 05 27.32080 15 02 10.07 -07 15 48.9 20.4 V 691 – Steward Observatory, Kitt Peak-Spacewatch MPS 80272
2004 09 16.25553 23 34 43.17 -04 08 15.0 20.2 V 691 – Steward Observatory, Kitt Peak-Spacewatch MPS 202335
2004 09 16.28305 23 34 41.85 -04 08 27.2 20.2 V 691 – Steward Observatory, Kitt Peak-Spacewatch MPS 202335
2004 09 16.31419 23 34 40.35 -04 08 41.0 20.1 V 691 – Steward Observatory, Kitt Peak-Spacewatch MPS 202335
2007 02 17.36352 11 36 53.56 +02 21 18.4   691 – Steward Observatory, Kitt Peak-Spacewatch MPS 200353
2007 02 17.38191 11 36 52.92 +02 21 25.0   691 – Steward Observatory, Kitt Peak-Spacewatch MPS 200353
2007 02 17.40005 11 36 52.28 +02 21 31.3   691 – Steward Observatory, Kitt Peak-Spacewatch MPS 200353
2007 02 21.38695 11 34 29.38 +02 46 24.0 20.6 V 691 – Steward Observatory, Kitt Peak-Spacewatch MPS 200353
2007 02 21.40536 11 34 28.66 +02 46 31.3 20.5 V 691 – Steward Observatory, Kitt Peak-Spacewatch MPS 200353
2007 02 21.42697 11 34 27.80 +02 46 38.7 20.5 V 691 – Steward Observatory, Kitt Peak-Spacewatch MPS 200353
2007 03 10.38319 11 22 00.48 +04 48 56.7 19.3 V G96 – Mt. Lemmon Survey MPS 203011
2007 03 10.39268 11 22 00.04 +04 49 00.9 19.4 V G96 – Mt. Lemmon Survey MPS 203011
2007 03 10.40214 11 21 59.54 +04 49 05.4 20.0 V G96 – Mt. Lemmon Survey MPS 203011
2007 03 10.41160 11 21 59.14 +04 49 10.0 18.8 V G96 – Mt. Lemmon Survey MPS 203011
2007 03 25.26490 11 10 31.90 +06 38 02.1 19.7 V G96 – Mt. Lemmon Survey MPS 205529
2007 03 25.27102 11 10 31.62 +06 38 04.6 19.9 V G96 – Mt. Lemmon Survey MPS 205529
2007 03 25.27707 11 10 31.33 +06 38 07.3 19.8 V G96 – Mt. Lemmon Survey MPS 205529
2007 03 25.28324 11 10 31.08 +06 38 09.8 20.1 V G96 – Mt. Lemmon Survey MPS 205529
2009 09 17.46333 03 00 31.21 +10 53 57.1 20.7 V G96 – Mt. Lemmon Survey MPS 294969
2009 09 17.47046 03 00 31.14 +10 53 55.6 21.0 V G96 – Mt. Lemmon Survey MPS 294969
2009 09 17.47754 03 00 31.10 +10 53 53.9 20.6 V G96 – Mt. Lemmon Survey MPS 294969
2009 09 17.48469 03 00 31.03 +10 53 52.8 20.6 V G96 – Mt. Lemmon Survey MPS 294969
2009 10 27.30492 02 38 48.91 +07 34 30.8 19.8 V G96 – Mt. Lemmon Survey MPS 300613
2009 10 27.31112 02 38 48.55 +07 34 29.1 20.4 V G96 – Mt. Lemmon Survey MPS 300613
2009 10 27.31740 02 38 48.22 +07 34 27.3 20.1 V G96 – Mt. Lemmon Survey MPS 300613
2009 10 27.32360 02 38 47.90 +07 34 24.7 19.9 V G96 – Mt. Lemmon Survey MPS 300613
2010 01 19.228977 02 15 53.81 +06 51 28.8   C51 – WISE MPS 333489
2010 01 19.361281 02 15 58.29 +06 52 04.2   C51 – WISE MPS 333489
2010 01 19.493586 02 16 02.75 +06 52 41.1   C51 – WISE MPS 333489
2010 01 19.625890 02 16 07.35 +06 53 18.4   C51 – WISE MPS 333489
2010 01 19.692106 02 16 09.59 +06 53 36.3   C51 – WISE MPS 333489
2010 01 19.758323 02 16 11.88 +06 53 55.1   C51 – WISE MPS 333489
2010 01 19.824411 02 16 14.25 +06 54 13.1   C51 – WISE MPS 333489
2010 01 19.890627 02 16 16.49 +06 54 33.6   C51 – WISE MPS 333489
2010 01 19.95672 02 16 18.75 +06 54 50.8   C51 – WISE MPS 333489
2010 01 19.95684 02 16 18.74 +06 54 49.6   C51 – WISE MPS 333489
2010 01 20.089148 02 16 23.35 +06 55 26.8   C51 – WISE MPS 333489
2010 01 20.221453 02 16 28.07 +06 56 03.5   C51 – WISE MPS 333489
2011 01 13.31431 08 17 31.77 +12 46 10.8 20.9 V G96 – Mt. Lemmon Survey MPS 366727
2011 01 13.32117 08 17 31.41 +12 46 12.2 20.9 V G96 – Mt. Lemmon Survey MPS 366727
2011 01 13.32816 08 17 31.05 +12 46 13.7 20.6 V G96 – Mt. Lemmon Survey MPS 366727
2011 01 13.33516 08 17 30.66 +12 46 15.3 20.4 V G96 – Mt. Lemmon Survey MPS 366727
2011 01 14.22697 08 16 44.27 +12 49 33.1 20.7 V 691 – Steward Observatory, Kitt Peak-Spacewatch MPS 368434
2011 01 14.24665 08 16 43.17 +12 49 37.6 20.3 V 691 – Steward Observatory, Kitt Peak-Spacewatch MPS 368434
2011 01 14.26632 08 16 42.13 +12 49 41.8 20.6 V 691 – Steward Observatory, Kitt Peak-Spacewatch MPS 368434
2011 01 23.26721 08 08 36.92 +13 26 08.3 20.6 V G96 – Mt. Lemmon Survey MPS 368434
2011 01 23.27468 08 08 36.49 +13 26 09.6 20.2 V G96 – Mt. Lemmon Survey MPS 368434
2011 01 23.28218 08 08 36.06 +13 26 11.8 20.4 V G96 – Mt. Lemmon Survey MPS 368434
2011 01 23.28961 08 08 35.62 +13 26 13.8 20.3 V G96 – Mt. Lemmon Survey MPS 368434
2011 01 30.29672 08 02 17.55 +13 57 20.4 20.4 V G96 – Mt. Lemmon Survey MPS 369378
2011 01 30.30530 08 02 17.12 +13 57 23.1 20.5 V G96 – Mt. Lemmon Survey MPS 369378
2011 01 30.31395 08 02 16.65 +13 57 25.1 20.5 V G96 – Mt. Lemmon Survey MPS 369378
2011 01 30.32260 08 02 16.11 +13 57 27.7 20.4 V G96 – Mt. Lemmon Survey MPS 369378
2011 02 05.24830 07 57 13.53 +14 24 32.6 20.7 V G96 – Mt. Lemmon Survey MPS 371358
2011 02 05.25554 07 57 13.21 +14 24 34.6 20.6 V G96 – Mt. Lemmon Survey MPS 371358
2011 02 05.26276 07 57 12.81 +14 24 36.7 20.5 V G96 – Mt. Lemmon Survey MPS 371358
2011 02 05.27000 07 57 12.45 +14 24 38.7 20.9 V G96 – Mt. Lemmon Survey MPS 371358
2011 02 05.91545 07 56 41.03 +14 27 35.7 20.1 V A13 – Observatoire Naef, Ependes MPS 371358
2011 02 05.94063 07 56 39.92 +14 27 41.9 20.9 V A13 – Observatoire Naef, Ependes MPS 371358
2012 04 27.53596 15 19 30.874 -09 04 21.38 19.4 i F51 – Pan-STARRS 1, Haleakala MPS 423584
2012 04 27.54658 15 19 30.379 -09 04 17.85 19.3 i F51 – Pan-STARRS 1, Haleakala MPS 423585
2012 05 21.35990 15 00 23.890 -07 11 27.78 19.6 w F51 – Pan-STARRS 1, Haleakala MPS 425866
2012 05 21.37440 15 00 23.199 -07 11 24.82 19.6 w F51 – Pan-STARRS 1, Haleakala MPS 425866
2012 05 21.38893 15 00 22.500 -07 11 21.88 19.6 w F51 – Pan-STARRS 1, Haleakala MPS 425866
2012 05 21.40345 15 00 21.804 -07 11 18.90 19.6 w F51 – Pan-STARRS 1, Haleakala MPS 425866
2013 08 14.51082 23 51 16.181 -00 51 06.52 20.8 w F51 – Pan-STARRS 1, Haleakala MPS 474242
2013 08 14.52488 23 51 15.818 -00 51 10.73 20.8 w F51 – Pan-STARRS 1, Haleakala MPS 474242
2013 08 14.53892 23 51 15.465 -00 51 14.83 20.8 w F51 – Pan-STARRS 1, Haleakala MPS 474242
2013 08 14.55314 23 51 15.094 -00 51 19.17 20.8 w F51 – Pan-STARRS 1, Haleakala MPS 474242
2013 09 03.43012 23 39 44.223 -02 55 10.86 20.4 w F51 – Pan-STARRS 1, Haleakala MPS 475942
2013 09 03.44500 23 39 43.556 -02 55 17.17 20.4 w F51 – Pan-STARRS 1, Haleakala MPS 475942
2013 09 03.45992 23 39 42.880 -02 55 23.65 20.4 w F51 – Pan-STARRS 1, Haleakala MPS 475942
2013 09 03.47483 23 39 42.196 -02 55 30.08 20.5 w F51 – Pan-STARRS 1, Haleakala MPS 475942
2013 09 12.26002 23 33 04.34 -04 00 16.9 20.0 V G96 – Mt. Lemmon Survey MPS 477475
2013 09 12.27024 23 33 03.86 -04 00 21.6 19.6 V G96 – Mt. Lemmon Survey MPS 477475
2013 09 12.28043 23 33 03.35 -04 00 25.8 19.7 V G96 – Mt. Lemmon Survey MPS 477475
